Regional Weather Roundup
Issued by NWS Charleston, SC

Current Version | Previous Version | Graphics & Text | Print | Product List | Glossary On
Versions: 1 2 3 4 5 6 7 8 9 10 11 12 13 14 15 16 17 18 19 20 21 22 23 24 25 26 27 28 29 30 31 32 33 34 35 36 37 38 39 40 41 42 43 44 45 46 47 48 49 50
000 ASUS42 KCHS 300413 RWRCHS REGIONAL WEATHER ROUNDUP NATIONAL WEATHER SERVICE CHARLESTON SC 1200 AM EDT SAT APR 30 2016 NOTE: "FAIR" INDICATES FEW OR NO CLOUDS BELOW 12,000 FEET WITH NO SIGNIFICANT WEATHER AND/OR OBSTRUCTIONS TO VISIBILITY. NOT ALL STATIONS ARE QUALITY CONTROLLED. USE DATA WITH CAUTION... ESPECIALLY DEWPOINT OBSERVATIONS. SCZ027-030-031-034>040-042>050-300500- ...SOUTHEAST SOUTH CAROLINA... CITY SKY/WX TMP DP RH WIND PRES REMARKS N CHARLESTON PTCLDY 70 67 90 S7 29.98F WATERFRONT PRK N/A 71 70 96 SE7 29.97F MOUNT PLEASANT FAIR 66 66 100 SE3 29.99S FOG JOHNS ISLAND FAIR 70 70 100 SE3 29.99S FOG PINOPOLIS N/A 72 68 88 CALM 29.91F MONCKS CORNER FAIR 64 63 94 CALM 29.99R FOG SUMMERVILLE MOCLDY 68 68 100 CALM 29.99F BEAUFORT MCAS CLOUDY 73 70 90 SE3 29.98S BEAUFORT ARPT FAIR 70 68 94 S3 29.98S FOG HILTON HEAD IS CLEAR 72 72 100 SE3 30.00S WALTERBORO CLEAR 70 70 100 SE3 29.99F ALLENDALE FAIR 72 66 83 SE5 29.97F ...SOUTHERN MIDLANDS AND PEE DEE... CITY SKY/WX TMP DP RH WIND PRES REMARKS GEORGETOWN FAIR 64 63 94 CALM 30.01S KINGSTREE FAIR 68 64 88 SE3 29.99S ORANGEBURG PTCLDY 71 62 73 S6 29.98F BARNWELL FAIR 73 66 78 CALM 29.98S AIKEN FAIR 70 55 60 SE7 30.01R MANNING NOT AVBL COLUMBIA CLOUDY 75 61 61 CALM 29.97R SUMTER CLOUDY 72 64 75 S5 29.96S FLORENCE CLOUDY 69 65 86 S6 29.99R MYRTLE BEACH CLOUDY 70 61 73 SE8 30.02S N MYRTLE BEACH PTCLDY 68 64 87 S6 30.00S $$ GAZ063-065-086>088-099>101-113>116-118-119-134>141-150-300500- ...SOUTHEAST GEORGIA... CITY SKY/WX TMP DP RH WIND PRES REMARKS SAVANNAH ARPT CLEAR 72 66 81 S3 29.97F HUNTER AAF CLEAR 72 72 100 SE5 29.95F FORT STEWART CLEAR 69 64 83 CALM 29.95F STATESBORO CLOUDY 72 65 77 CALM 29.97S SYLVANIA PTCLDY 71 64 77 CALM 29.99S CLAXTON FAIR 68 64 88 CALM 29.97S ...CSRA...CENTRAL AND FAR SOUTHEAST GEORGIA... CITY SKY/WX TMP DP RH WIND PRES REMARKS THOMSON PTCLDY 67 66 97 CALM 30.02R AUGUSTA-BUSH CLEAR 67 64 90 CALM 29.96R AUGUSTA-DANIEL CLEAR 78 58 49 SE8 29.98R SWAINSBORO FAIR 72 64 78 CALM 29.98R VIDALIA CLOUDY 73 63 68 CALM 29.97S EASTMAN FAIR N/A N/A N/A CALM 29.98F HAZLEHURST FAIR 74 64 69 SE6 29.96R ALMA CLEAR 72 65 78 CALM 29.96S WAYCROSS CLEAR 74 69 82 S3 29.96F JESUP FAIR 70 68 94 CALM 29.98S BAXLEY FAIR 73 64 73 CALM 29.97R BRUNSWICK CLEAR 77 73 88 SE6 29.98F SAINT SIMONS CLEAR 73 73 100 SE8 29.97F $$ SCZ027-028-034-036>038-045-046-048>050-GAZ119-141-300500- ...LAKE AND SUPPLEMENTAL COASTAL OBSERVATIONS... STATION/POSITION TIME TEMP WIND PRES WAVE SWELL AIR SEA DIR/SP/G HT/PER HT/PER/DIR (UTC) (F) (DEG/KT/KT) (MB) (FT/S) (FT/S/D) WINYAH BAY NOT AVBL LAKE MURRAY 0300 74 CALM 1014.2S ACE BASIN NERRS NOT AVBL FORT PULASKI 0300 72 72 N/A SAPELO ISLAND 0300 72 CALM 1015.0S $$ ANZ835-935-AMZ111-154-330-350-352-354-370-450-454-472-300500- ...C-MAN AND BUOY OBSERVATIONS... STATION/POSITION TIME TEMP WIND PRES WAVE SWELL AIR SEA DIR/SP/G HT/PER HT/PER/DIR (UTC) (F) (DEG/KT/KT) (MB) (FT/S) (FT/S/D) BUOY 41004 0350 74 72 130/ 8/ 8 1015.1F 2/ 9 2/ 9 BUOY 41008 NOT AVBL FOLLY BEACH CMAN 0300 71 120/ 5/ 5 1016.0R CAPERS NEARSHORE 0308 70 71 110/ 2/ 6 1015.6F FRIPP NEARSHORE 0308 72 72 130/ 6/ 10 1014.8F STATION/POSITION TIME TEMP WIND PRES WAVE SWELL AIR SEA DIR/SP/G HT/PER HT/PER/DIR (UTC) (F) (DEG/KT/KT) (MB) (FT/S) (FT/S/D) 5E ST. MARYS GA 0321 74 N/A 2/11 FRYING PAN BUOY 0300 70 70 70/ 8/ 10 1016.0R BUOY 41025 0350 57 75 20/ 14/ 16 1016.3F 4/ 8 3/ 50/ 8 CAPE LOOKOUT NC 0300 66 60/ 10/ 11 1015.6F BUOY 41002 0350 71 71 300/ 4/ 4 1015.1F 3/ 6 3/270/ 6 BUOY 41010 0320 76 77 170/ 6/ 8 1015.7F ST AUGUSTINE FL 0400 73 72 190/ 7/ 7 1016.0F $$

USA.gov is the U.S. government's official web portal to all federal, state and local government web resources and services.